Wind_Speed
87 88 87 84 81 77 74 71 70 69 68 68 69 70 71 73 74 76 76 77 77 77 77 78 78 78 78 79 79 79 80 80 81 82 83 83 84 85 86 87 88 89
88 88 85 82 77 74 72 71 70 69 70 70 72 73 75 76 77 78 78 78 78 78 77 77 77 77 77 77 78 78 79 79 80 81 82 83 84 85 85 86 87 88
88 87 83 79 75 72 71 70 71 71 72 73 75 77 78 79 79 79 79 78 77 76 75 75 74 74 74 74 74 75 76 76 77 79 80 81 82 83 85 86 87 88
87 84 81 77 74 72 71 71 72 74 75 77 78 79 80 80 79 78 77 75 74 72 71 71 70 70 70 70 71 71 72 73 74 75 76 77 78 80 81 83 85 86
85 82 78 75 73 72 72 73 75 77 78 79 80 80 79 78 76 74 72 70 69 67 66 66 65 65 66 66 67 67 68 68 69 70 71 71 73 74 76 78 80 82
83 79 77 75 74 74 75 76 78 79 79 79 79 77 75 73 70 68 66 64 63 62 61 61 61 61 61 61 61 62 62 63 63 64 65 66 67 69 71 73 75 76
81 78 76 75 75 76 78 78 79 79 78 76 74 71 69 66 64 62 61 60 59 58 58 57 57 56 56 57 57 58 58 59 60 61 62 63 64 66 68 70 71 72
80 78 77 77 78 79 79 79 78 76 74 71 68 65 63 60 59 58 57 56 55 55 54 54 53 53 53 54 55 56 57 58 59 60 61 62 63 64 66 67 69 69
79 78 78 79 80 80 79 77 74 71 68 65 62 60 58 57 56 55 54 53 52 51 50 50 50 50 52 53 55 56 57 58 59 61 62 62 63 64 65 66 67 67
79 79 80 80 80 78 75 72 69 66 63 61 59 57 56 54 53 52 51 49 48 47 47 47 48 50 52 54 56 58 58 59 60 61 62 63 64 64 64 65 65 65
79 80 81 80 78 74 70 67 64 61 59 58 56 55 53 52 51 49 47 46 44 44 45 46 48 50 52 54 56 58 59 60 61 62 63 64 64 64 64 64 64 64
80 81 81 78 74 70 65 62 60 58 57 55 54 52 51 49 48 46 44 43 42 43 44 46 48 50 53 55 57 59 60 61 62 63 64 64 63 63 63 63 64 64
81 81 79 75 70 66 62 60 58 56 54 53 51 50 48 46 44 42 41 41 41 42 44 46 48 51 53 55 57 59 60 61 62 63 63 63 62 62 62 63 64 65
81 80 77 72 67 63 60 58 56 54 52 50 48 47 45 43 41 40 39 39 41 42 44 46 48 51 53 56 58 60 61 62 63 63 63 62 62 62 63 64 65 66
80 78 73 68 65 62 59 56 54 51 49 47 46 44 43 41 39 37 37 38 40 42 44 47 49 51 55 57 59 60 61 62 63 63 62 61 61 61 62 63 65 66
79 75 70 66 63 60 57 54 51 49 47 45 43 42 40 38 36 36 36 38 39 42 44 47 50 53 56 59 60 62 62 63 63 62 61 61 61 61 61 62 63 64
77 72 67 63 60 57 54 51 48 46 44 43 41 39 37 35 34 34 36 37 40 42 45 48 51 54 57 59 61 63 64 64 62 61 61 61 62 61 61 61 61 62
74 69 64 60 58 54 51 47 45 43 41 39 37 35 33 32 33 34 35 38 41 43 46 49 52 55 58 60 62 63 63 63 62 61 61 62 62 62 61 60 60 59
71 66 61 57 55 51 47 44 41 39 37 35 33 32 31 31 32 34 36 39 42 45 47 50 53 56 58 61 62 62 62 62 61 61 62 62 62 61 60 59 57 55
69 63 58 55 52 48 44 41 38 35 34 32 31 31 31 31 33 35 37 40 43 45 48 50 53 56 58 60 61 60 60 61 61 61 61 61 61 60 58 55 52 49
66 60 56 53 49 45 41 38 36 34 32 32 31 31 32 33 34 36 38 41 44 46 48 50 53 56 57 59 59 59 59 60 60 60 61 60 59 57 54 50 46 44
64 58 53 50 47 42 39 37 35 34 33 33 32 32 33 34 36 37 39 41 44 46 48 50 53 55 56 57 59 59 59 59 60 60 59 58 57 54 48 44 41 41
62 56 52 49 45 41 38 37 36 35 34 34 33 33 34 35 37 38 40 42 44 46 48 50 52 54 55 57 58 59 59 59 59 59 57 56 54 48 42 38 38 40
61 55 50 47 43 40 37 37 36 36 35 35 34 34 34 36 37 38 40 42 44 46 48 49 51 53 54 56 58 58 58 58 59 58 56 54 50 42 36 34 36 39
60 55 50 46 42 39 37 37 37 36 35 35 35 35 35 36 38 39 40 42 44 46 47 49 50 52 54 56 57 57 57 58 59 57 55 52 46 37 32 32 35 38
59 54 50 46 42 39 36 37 37 36 35 35 35 35 35 36 38 40 41 42 44 45 47 49 50 52 53 55 56 56 56 58 59 57 55 51 42 33 30 31 33 35
Wind_Direction
313 313 312 310 307 303 300 297 295 294 292 292 291 291 291 291 291 290 289 288 287 285 284 283 281 280 279 278 278 277 276 276 275 275 274 274 273 272 272 271 270 269
313 313 311 309 306 303 300 297 296 294 293 292 292 292 292 292 291 290 289 288 286 285 284 282 281 280 279 278 278 277 276 276 275 275 274 274 273 273 272 271 271 270
314 313 311 309 306 302 300 298 296 295 294 293 293 293 293 292 291 290 289 287 286 284 283 282 281 280 279 278 278 277 277 276 276 275 275 274 274 273 272 272 271 271
314 313 311 309 306 303 301 299 298 297 296 295 295 295 294 293 292 290 288 287 285 284 283 282 280 279 278 278 278 277 277 276 276 275 275 274 274 274 273 273 272 271
314 313 311 308 306 304 302 301 299 298 298 297 296 295 294 293 291 290 288 286 285 284 282 281 280 279 279 278 278 278 277 277 277 276 276 276 276 275 275 274 273 273
315 313 311 309 307 306 304 303 301 300 299 298 297 295 294 292 291 289 287 286 284 283 282 281 280 279 279 279 279 279 279 279 279 279 279 279 278 278 278 277 276 275
315 313 311 310 309 307 306 304 303 301 300 298 297 295 293 292 290 288 286 285 284 283 281 280 279 279 279 279 280 280 281 281 281 282 282 282 282 282 281 280 279 277
315 313 312 311 310 308 307 305 304 302 300 299 297 295 293 291 290 288 286 285 283 282 280 279 279 279 279 280 281 282 283 284 285 285 286 287 286 285 284 283 281 280
315 314 313 312 311 310 308 306 304 303 301 299 297 295 293 291 290 288 286 285 283 281 280 279 280 280 281 283 284 285 285 287 288 289 290 290 289 288 286 285 283 281
316 315 314 313 312 311 309 307 305 303 301 299 297 295 294 292 290 288 286 284 282 280 279 280 281 282 284 285 286 287 288 289 290 292 293 293 292 291 289 287 286 284
317 316 316 314 313 311 309 307 305 303 301 299 298 296 294 292 290 288 286 284 282 280 280 281 282 284 286 287 288 288 289 291 292 294 295 294 294 293 292 290 289 286
318 318 317 316 314 312 310 308 306 304 302 300 298 296 294 292 290 288 285 283 281 281 282 283 285 287 288 288 289 289 291 293 294 295 296 296 296 295 294 293 291 289
320 319 318 317 315 313 311 308 306 304 302 301 299 297 295 292 290 287 284 282 282 282 284 286 287 288 289 289 290 291 293 295 296 297 298 298 298 298 297 296 294 292
321 321 320 318 317 315 312 310 307 305 303 301 299 297 295 292 289 285 283 282 283 285 286 288 289 290 291 292 293 294 296 298 299 300 301 301 300 300 300 299 297 295
323 322 321 320 318 316 314 311 309 306 304 302 300 298 296 292 288 285 283 283 284 287 289 291 292 293 294 295 296 297 298 300 301 302 302 302 302 302 301 300 298 296
324 324 323 321 320 318 316 313 310 308 305 303 302 299 296 293 288 285 284 285 287 290 292 294 296 297 297 298 299 300 301 302 303 304 304 304 304 303 301 300 299 297
326 325 324 322 321 320 318 315 313 310 308 306 303 301 298 294 290 288 287 289 291 294 296 298 299 299 299 300 301 302 304 305 306 306 306 306 305 304 303 302 299 297
327 326 325 324 323 322 320 318 316 313 311 308 306 303 300 296 293 292 292 293 296 298 299 300 301 301 301 302 303 304 306 307 308 308 309 309 308 306 305 303 299 296
328 327 326 325 324 323 322 320 319 317 314 312 309 306 303 300 298 297 297 298 299 301 301 302 302 303 303 304 305 307 308 308 309 310 310 310 309 308 307 303 299 294
328 327 326 326 325 324 323 322 321 320 317 315 313 310 308 305 303 302 302 302 302 303 304 304 304 305 305 306 307 308 309 310 311 312 312 311 311 310 308 303 298 293
329 328 326 326 325 324 323 323 322 320 318 317 315 313 311 309 307 306 305 305 305 305 306 307 306 306 307 308 309 310 311 312 313 313 313 313 313 312 308 302 297 293
329 328 326 325 324 323 322 322 321 320 318 317 316 315 312 311 310 309 308 308 308 308 309 309 309 308 309 310 310 312 313 314 314 314 314 315 315 313 308 302 298 296
329 328 326 324 323 321 320 320 319 319 318 317 317 315 314 313 312 311 311 311 311 311 311 311 311 310 311 312 312 314 315 315 315 315 316 317 317 314 308 302 300 296
329 327 325 324 322 320 318 318 317 317 317 317 316 316 315 314 313 313 313 313 313 313 313 313 313 312 312 313 314 315 317 316 317 318 319 320 319 315 308 303 300 295
329 327 324 323 321 318 317 316 316 316 317 316 316 316 316 315 315 316 316 315 315 315 315 315 314 314 314 315 315 317 319 319 319 321 322 323 322 316 309 305 301 297
329 326 324 322 320 317 315 315 315 316 316 315 315 316 317 317 317 317 318 318 317 317 317 316 316 315 315 316 317 320 321 321 321 323 324 326 325 318 311 308 303 298
Height
5446 5440 5433 5427 5420 5414 5408 5403 5399 5395 5391 5388 5384 5380 5377 5373 5369 5366 5362 5358 5355 5353 5351 5348 5346 5343 5341 5339 5338 5336 5335 5333 5332 5330 5329 5328 5327 5326 5326 5325 5325 5324
5435 5429 5422 5416 5409 5403 5397 5392 5388 5384 5380 5376 5372 5369 5365 5361 5357 5353 5350 5346 5343 5340 5338 5335 5333 5331 5329 5327 5325 5324 5322 5321 5319 5317 5316 5316 5314 5313 5312 5311 5311 5310
5424 5417 5410 5404 5398 5393 5387 5382 5377 5372 5369 5365 5360 5356 5352 5348 5344 5340 5337 5333 5330 5327 5325 5322 5320 5318 5316 5315 5313 5312 5310 5308 5307 5305 5304 5303 5301 5300 5299 5298 5298 5297
5412 5405 5398 5392 5387 5382 5376 5371 5366 5361 5356 5352 5347 5343 5339 5334 5331 5327 5323 5320 5317 5315 5312 5310 5308 5306 5304 5303 5301 5300 5298 5296 5294 5293 5292 5291 5289 5287 5286 5284 5284 5283
5401 5394 5387 5381 5375 5370 5365 5360 5354 5349 5344 5339 5334 5330 5325 5321 5317 5314 5310 5307 5305 5302 5300 5298 5296 5294 5292 5291 5290 5288 5286 5285 5283 5281 5280 5280 5278 5276 5274 5272 5271 5270
5390 5382 5376 5370 5364 5359 5353 5347 5342 5336 5331 5326 5321 5317 5312 5308 5305 5302 5299 5296 5293 5291 5289 5287 5285 5284 5282 5280 5279 5277 5275 5274 5273 5271 5270 5269 5267 5265 5263 5260 5258 5257
5379 5372 5365 5359 5353 5347 5341 5335 5328 5323 5317 5312 5308 5304 5300 5297 5293 5291 5288 5286 5283 5281 5279 5277 5276 5274 5272 5271 5269 5268 5266 5265 5263 5261 5260 5259 5257 5255 5251 5248 5246 5244
5368 5361 5354 5348 5341 5335 5328 5322 5315 5309 5304 5300 5296 5292 5289 5286 5283 5280 5278 5276 5274 5272 5270 5268 5267 5265 5264 5262 5261 5259 5257 5255 5254 5252 5251 5249 5247 5244 5240 5236 5233 5231
5358 5351 5344 5337 5330 5322 5315 5309 5303 5297 5292 5288 5285 5281 5278 5276 5273 5271 5269 5266 5265 5263 5261 5260 5259 5257 5255 5254 5251 5250 5248 5246 5245 5243 5241 5239 5236 5233 5229 5225 5221 5219
5348 5341 5333 5326 5318 5311 5304 5297 5291 5286 5282 5278 5275 5272 5269 5266 5264 5262 5259 5258 5256 5255 5253 5252 5251 5249 5248 5245 5243 5240 5238 5237 5235 5233 5231 5228 5225 5221 5217 5213 5209 5207
5339 5331 5323 5315 5307 5300 5293 5287 5282 5277 5272 5269 5266 5263 5260 5257 5255 5253 5251 5250 5249 5247 5246 5245 5244 5242 5240 5237 5234 5231 5229 5228 5226 5224 5221 5217 5214 5210 5205 5201 5197 5194
5329 5321 5312 5305 5297 5290 5284 5278 5273 5268 5264 5260 5257 5254 5251 5248 5246 5245 5244 5242 5241 5240 5239 5238 5236 5234 5232 5228 5226 5223 5221 5219 5217 5214 5211 5207 5203 5199 5194 5189 5184 5180
5319 5310 5302 5294 5287 5281 5275 5270 5264 5260 5256 5252 5248 5246 5243 5241 5239 5238 5237 5236 5235 5234 5232 5231 5229 5226 5223 5220 5217 5215 5213 5211 5208 5204 5201 5197 5192 5188 5183 5177 5172 5167
5309 5300 5292 5284 5278 5272 5266 5261 5256 5252 5248 5244 5241 5238 5236 5234 5232 5231 5230 5229 5228 5227 5226 5224 5222 5219 5215 5212 5209 5206 5204 5201 5198 5194 5190 5186 5181 5177 5171 5165 5159 5154
5300 5291 5283 5276 5269 5263 5257 5252 5248 5244 5240 5237 5234 5231 5229 5227 5226 5225 5224 5224 5222 5221 5219 5217 5214 5211 5207 5203 5200 5198 5195 5192 5188 5184 5180 5176 5172 5167 5162 5155 5148 5143
5291 5283 5275 5268 5261 5256 5250 5245 5241 5237 5233 5230 5227 5225 5223 5221 5220 5219 5218 5218 5217 5215 5213 5210 5207 5203 5198 5194 5191 5188 5185 5181 5178 5174 5170 5166 5161 5156 5151 5145 5138 5132
5284 5276 5268 5262 5255 5249 5244 5239 5234 5230 5227 5224 5221 5219 5217 5216 5215 5214 5213 5212 5211 5209 5206 5203 5199 5195 5190 5186 5182 5178 5174 5170 5167 5163 5159 5154 5149 5144 5140 5134 5128 5122
5277 5269 5262 5256 5249 5243 5238 5233 5229 5225 5222 5219 5216 5214 5213 5211 5210 5209 5208 5206 5205 5202 5199 5196 5192 5187 5182 5178 5174 5169 5165 5160 5156 5153 5148 5143 5138 5132 5128 5122 5116 5111
5270 5263 5257 5250 5244 5238 5233 5229 5225 5221 5218 5215 5212 5210 5208 5207 5205 5204 5203 5201 5199 5196 5193 5189 5184 5179 5174 5169 5165 5161 5157 5151 5147 5143 5138 5133 5127 5121 5116 5110 5105 5101
5264 5258 5251 5245 5239 5234 5229 5225 5221 5218 5214 5211 5209 5207 5205 5203 5201 5200 5198 5195 5192 5189 5186 5182 5177 5171 5167 5161 5156 5153 5149 5143 5139 5135 5129 5124 5118 5111 5105 5099 5094 5090
5258 5252 5246 5240 5235 5230 5226 5222 5218 5214 5211 5208 5206 5203 5201 5199 5197 5195 5192 5189 5186 5183 5179 5175 5170 5164 5159 5154 5149 5145 5141 5136 5131 5126 5120 5114 5108 5101 5095 5089 5084 5080
5253 5247 5241 5236 5231 5226 5222 5218 5214 5211 5208 5205 5202 5200 5197 5195 5192 5190 5187 5184 5180 5177 5173 5169 5163 5156 5152 5147 5141 5137 5133 5128 5123 5118 5112 5106 5100 5093 5086 5080 5076 5072
5248 5242 5237 5232 5227 5223 5218 5214 5211 5207 5204 5201 5199 5196 5193 5190 5187 5184 5181 5178 5175 5171 5166 5162 5156 5150 5145 5140 5134 5130 5126 5120 5115 5110 5104 5099 5092 5085 5079 5074 5069 5064
5243 5237 5232 5227 5223 5219 5215 5211 5207 5203 5200 5197 5194 5191 5189 5186 5182 5180 5176 5172 5169 5164 5159 5155 5150 5143 5138 5133 5128 5123 5118 5113 5107 5102 5097 5091 5085 5079 5073 5068 5063 5058
5238 5232 5227 5222 5218 5215 5211 5207 5203 5199 5196 5193 5190 5187 5184 5181 5177 5174 5171 5167 5162 5158 5153 5148 5143 5137 5132 5127 5121 5116 5111 5104 5098 5094 5089 5084 5078 5073 5067 5062 5057 5052
5233 5227 5222 5217 5213 5210 5206 5202 5198 5195 5192 5188 5185 5182 5179 5176 5172 5168 5166 5161 5156 5152 5147 5141 5136 5131 5126 5120 5114 5109 5104 5097 5090 5085 5081 5076 5072 5067 5061 5056 5051 5046